[[{"header":{"parameterUnit":"m.s-1","parameterCategory":1,"la1":30.2991,"la2":30.254,"lo1":-89.0895,"lo2":-89.0444,"dy":0.0017,"dx":0.0017,"nx":28,"ny":28,"refTime":"2025-07-12T03:00:00:Z","depth":0,"parameterNumber":2,"parameterNumberName":"U-component_of_WINDS"},"data":[0,0,0,0,0,0,0,0,0,0,0,0,0,0,0,0,0,0,0,0,0,0,0,0,0,0,0,0,0,0,0,0,0,0,0,0,0,0,0,0,0,0,0,0,0,0,0,0,0,0,0,0,0,0,0,0,0,0,3.5252,3.5253,0,3.5339,3.534,3.5341,3.53,3.5298,3.5295,3.5293,3.5381,3.5386,3.539,0,0,0,0,0,0,0,0,0,0,0,0,0,3.5045,3.5049,3.5252,3.5253,3.5254,3.5339,3.534,3.5342,3.53,3.5298,3.5295,3.5292,3.538,3.5385,3.5391,0,0,0,0,0,0,0,0,0,0,0,0,0,3.5134,3.505,3.5252,3.5244,3.5244,3.5339,3.534,3.5342,3.5301,3.5297,3.5294,3.5291,3.5378,3.5385,3.5391,3.5499,0,0,3.5412,3.5414,0,0,0,0,0,0,0,0,3.5129,3.5142,3.5244,3.5244,3.5245,3.5305,3.53,3.5394,3.5302,3.5279,3.5293,3.5289,3.5359,3.5367,3.539,3.5503,3.5507,3.5412,3.5416,3.5419,3.5421,0,0,0,0,0,0,0,3.5123,3.5138,3.5286,3.5245,3.5246,3.5234,3.5243,3.5318,3.5336,3.5281,3.5278,3.5289,3.5358,3.5384,3.5392,3.5508,3.5412,3.5418,3.5422,3.5424,3.5709,3.5712,0,0,0,0,0,0,3.5117,3.5133,3.5284,3.5289,3.5177,3.5241,3.5251,3.5289,3.5336,3.5339,3.5292,3.5287,3.5374,3.5385,3.5395,3.5521,3.5419,3.5425,3.5429,3.5705,3.5709,3.5713,0,0,0,0,0,0,3.5113,3.5131,3.528,3.521,3.5228,3.5248,3.5291,3.5293,3.5318,3.5344,3.5347,3.5315,3.5372,3.5386,3.5472,3.5523,3.5428,3.5434,3.5701,3.5706,3.5711,3.5775,0,0,0,0,0,0,3.5107,3.513,3.5172,3.5211,3.5232,3.5357,3.5295,3.5297,3.533,3.5324,3.5366,3.537,3.5371,3.5463,3.5479,3.5531,3.5439,3.5696,3.5703,3.571,3.5769,3.5782,3.5794,0,0,0,0,0,3.51,3.5187,3.5175,3.5193,3.5285,3.536,3.5372,3.5371,3.5335,3.5376,3.5392,3.5369,3.5516,3.5472,3.549,3.5545,3.5693,3.5701,3.5709,3.5763,3.5779,3.5793,0,0,0,0,0,0,3.5154,3.5192,3.5179,3.5281,3.5318,3.5353,3.5406,3.539,3.5437,3.543,3.5426,3.5436,3.5525,3.5544,3.5495,3.5649,3.5598,3.561,3.5633,3.5649,3.5661,3.5654,3.5445,0,0,0,0,0,3.5178,3.5236,3.5266,3.5354,3.5373,3.5386,3.5419,3.5415,3.5453,3.5468,3.549,3.5527,3.558,3.5616,3.5668,3.5772,3.5778,3.5818,3.583,3.584,3.585,3.5902,3.5919,3.574,3.574,3.5739,0,0,3.5227,3.5256,3.5293,3.5365,3.5393,3.5452,3.54,3.5465,3.5508,3.5478,3.556,3.5577,3.5618,3.5712,3.5755,3.5731,3.5901,3.5851,3.5858,3.5863,3.5912,3.5929,3.5944,3.5745,3.5744,3.5743,0,0,3.5347,3.5376,3.545,3.5479,3.5521,3.5529,3.5547,3.5584,3.5595,3.5677,3.5654,3.5705,3.5799,3.5828,3.5854,3.5982,3.5961,3.5999,3.6064,3.6115,3.6129,3.6141,3.6183,3.6199,3.6009,3.6009,3.6009,0,3.5404,3.5492,3.5491,3.5557,3.5588,3.5563,3.5636,3.5664,3.5721,3.5742,3.5714,3.5829,3.5855,3.5954,3.5985,3.6009,3.6026,3.5993,3.6127,3.614,3.6151,3.6191,3.6207,3.6013,3.6013,3.6012,3.6012,0,3.5557,3.5619,3.5674,3.5729,3.5766,3.5836,3.5843,3.5881,3.5873,3.5883,3.5966,3.5995,3.605,3.6074,3.6068,3.6172,3.6154,3.6127,3.6076,3.6172,3.621,3.6225,3.6019,3.6018,3.6016,3.6015,0,0,3.5715,3.5765,3.5785,3.5808,3.5852,3.5899,3.5966,3.602,3.6051,3.6091,3.6145,3.6224,3.6197,3.6228,3.6224,3.627,3.6364,3.6236,3.6237,3.6256,3.6476,3.6494,3.6512,3.6351,3.6354,3.6357,3.6471,0,3.5835,3.5953,3.5952,3.6061,3.6115,3.6091,3.6149,3.6181,3.6192,3.6239,3.6251,3.6305,3.6269,3.6286,3.633,3.6343,3.6408,3.6336,3.6399,3.6402,3.6387,3.6532,3.6553,3.6659,3.6486,3.6489,3.6491,0,3.5992,3.6035,3.6149,3.6181,3.6204,3.6257,3.6304,3.635,3.6385,3.6389,3.6422,3.641,3.6476,3.6424,3.6514,3.6464,3.649,3.6501,3.6505,3.6509,3.645,3.6537,3.6694,3.6708,3.6514,3.6512,3.6511,0,3.609,3.6178,3.6256,3.6277,3.6318,3.6354,3.6373,3.6404,3.6435,3.6476,3.6496,3.6544,3.657,3.6607,3.6608,3.6571,3.6697,3.6646,3.67,3.67,3.6726,3.6724,3.6886,3.6748,3.6748,3.6747,3.6747,0,3.6224,3.6294,3.63,3.6348,3.6424,3.6422,3.6497,3.6512,3.654,3.6588,3.6571,3.6617,3.6617,3.6663,3.6665,3.6736,3.6749,3.6752,3.6751,3.6752,3.6751,3.6767,3.6759,3.6752,3.6751,3.675,3.6749,0,3.6346,3.6354,3.6437,3.6468,3.6477,3.6532,3.6557,3.6602,3.661,3.6672,3.6686,3.67,3.6753,3.6758,3.682,3.6821,3.6906,3.6899,3.6894,3.6892,3.6944,3.6938,3.712,3.7142,3.6992,3.6994,3.6995,0,3.643,3.6482,3.6518,3.6549,3.657,3.6621,3.6652,3.6651,3.6684,3.6725,3.6764,3.6815,3.6856,3.6942,3.6956,3.7002,3.6994,3.7055,3.7001,3.6999,3.6991,3.6987,3.699,3.7064,3.7066,3.7067,3.7068,0,3.6576,3.6576,3.6622,3.6668,3.6705,3.6742,3.6776,3.6803,3.6805,3.6843,3.6896,3.6928,3.699,3.704,3.7085,3.7102,3.7085,3.7085,3.71,3.71,3.7094,3.7094,3.6919,3.7081,3.708,3.7079,3.7078,3.7077,3.6679,3.6723,3.6754,3.6805,3.683,3.6861,3.6903,3.6916,3.6961,3.7012,3.7008,3.7067,3.7097,3.7155,3.7176,3.722,3.72,3.7222,3.7226,3.7231,3.7235,3.7089,3.7229,3.7229,3.7228,3.7228,3.7228,0,3.6821,3.6839,3.6886,3.6933,3.6972,3.6953,3.6988,3.7022,3.7073,3.7103,3.7143,3.7203,3.7251,3.7268,3.7314,3.7346,3.7339,3.7358,3.7354,3.7357,3.7252,3.7234,3.7363,3.7362,3.7362,3.7362,3.7362,3.7362,3.6899,3.6971,3.6975,3.7059,3.7076,3.7133,3.7155,3.7183,3.7206,3.7274,3.7313,3.7324,3.7348,3.7395,3.7437,3.744,3.7456,3.7478,3.7478,3.7379,3.7365,3.7352,3.7335,3.7483,3.7483,3.7579,3.758,3.7581]},{"header":{"parameterUnit":"m.s-1","parameterCategory":1,"la1":30.2991,"la2":30.254,"lo1":-89.0895,"lo2":-89.0444,"dy":0.0017,"dx":0.0017,"nx":28,"ny":28,"refTime":"2025-07-12T03:00:00:Z","depth":0,"parameterNumber":3,"parameterNumberName":"V-component_of_WINDS"},"data":[0,0,0,0,0,0,0,0,0,0,0,0,0,0,0,0,0,0,0,0,0,0,0,0,0,0,0,0,0,0,0,0,0,0,0,0,0,0,0,0,0,0,0,0,0,0,0,0,0,0,0,0,0,0,0,0,0,0,2.6303,2.6303,0,2.6374,2.6375,2.6375,2.6334,2.6332,2.633,2.6328,2.6401,2.6405,2.6409,0,0,0,0,0,0,0,0,0,0,0,0,0,2.6129,2.6132,2.6303,2.6303,2.6304,2.6374,2.6375,2.6376,2.6334,2.6332,2.6329,2.6327,2.64,2.6405,2.6409,0,0,0,0,0,0,0,0,0,0,0,0,0,2.6203,2.6133,2.6302,2.6292,2.6292,2.6374,2.6375,2.6376,2.6334,2.6331,2.6328,2.6326,2.6399,2.6404,2.641,2.6506,0,0,2.6428,2.643,0,0,0,0,0,0,0,0,2.6199,2.6209,2.6293,2.6293,2.6293,2.6342,2.634,2.642,2.6335,2.6318,2.6328,2.6324,2.6384,2.6391,2.6411,2.651,2.6513,2.6428,2.6432,2.6434,2.6436,0,0,0,0,0,0,0,2.6194,2.6206,2.6331,2.6294,2.6294,2.6283,2.629,2.6355,2.6367,2.6319,2.6317,2.6326,2.6383,2.6405,2.6412,2.6514,2.6428,2.6433,2.6437,2.6439,2.6693,2.6696,0,0,0,0,0,0,2.6189,2.6202,2.6328,2.6333,2.6237,2.6289,2.6297,2.6329,2.6367,2.6369,2.6328,2.6323,2.6397,2.6406,2.6415,2.6529,2.6434,2.6439,2.6443,2.669,2.6694,2.6697,0,0,0,0,0,0,2.6186,2.6201,2.6326,2.6267,2.6282,2.6295,2.6332,2.6332,2.6354,2.6373,2.6375,2.6348,2.6395,2.6407,2.6483,2.6531,2.6442,2.6447,2.6686,2.6691,2.6696,2.6758,0,0,0,0,0,0,2.6181,2.62,2.6237,2.6268,2.6285,2.6394,2.6335,2.6336,2.6364,2.6358,2.6393,2.6395,2.6393,2.6475,2.6489,2.6537,2.6452,2.6682,2.6688,2.6694,2.6752,2.6765,2.6776,0,0,0,0,0,2.6175,2.6253,2.6239,2.6255,2.6332,2.6397,2.6406,2.6402,2.6368,2.6405,2.6417,2.6394,2.6523,2.6483,2.6499,2.6549,2.6679,2.6686,2.6694,2.6747,2.6762,2.6775,0,0,0,0,0,0,2.6228,2.6257,2.6242,2.6332,2.6362,2.6389,2.6436,2.6419,2.646,2.6453,2.6447,2.6455,2.6534,2.6549,2.6504,2.6643,2.6595,2.6606,2.6631,2.6645,2.6657,2.6652,2.6457,0,0,0,0,0,2.6251,2.6301,2.6323,2.64,2.6416,2.6423,2.6452,2.6446,2.6476,2.6489,2.6507,2.6537,2.6584,2.6616,2.666,2.6754,2.676,2.6796,2.6808,2.6817,2.6827,2.6875,2.6891,2.6722,2.6722,2.6721,0,0,2.6297,2.6319,2.6351,2.6411,2.6434,2.6485,2.6435,2.6492,2.653,2.6498,2.6571,2.6585,2.6618,2.6703,2.6742,2.6718,2.6874,2.6827,2.6834,2.6838,2.6884,2.69,2.6915,2.6727,2.6726,2.6725,0,0,2.6408,2.643,2.6496,2.6519,2.6553,2.6558,2.6573,2.6603,2.661,2.6683,2.666,2.6704,2.6786,2.6811,2.6834,2.6951,2.6931,2.6966,2.7027,2.7075,2.7088,2.71,2.714,2.7155,2.6975,2.6975,2.6975,0,2.6462,2.6539,2.6532,2.6591,2.6617,2.6589,2.6655,2.6678,2.6726,2.6744,2.6717,2.6818,2.6839,2.6928,2.6956,2.6976,2.6993,2.6962,2.7087,2.7098,2.7109,2.7148,2.7163,2.6979,2.6979,2.6978,2.6978,0,2.6602,2.6656,2.6705,2.675,2.6782,2.6844,2.6846,2.6879,2.687,2.6877,2.695,2.6974,2.7022,2.7042,2.7035,2.713,2.7114,2.7087,2.7039,2.7129,2.7166,2.718,2.6985,2.6983,2.6982,2.6981,0,0,2.6751,2.679,2.6808,2.6827,2.6862,2.6903,2.6962,2.7009,2.7036,2.7069,2.7119,2.7187,2.7162,2.7188,2.7182,2.7224,2.7313,2.7191,2.7192,2.7212,2.7418,2.7438,2.7455,2.73,2.7303,2.7305,2.7415,0,2.6863,2.6968,2.6962,2.706,2.7108,2.7082,2.7133,2.716,2.7167,2.7209,2.7217,2.7265,2.7228,2.7244,2.7284,2.7294,2.7354,2.7286,2.7345,2.7347,2.7337,2.7474,2.7496,2.7598,2.7429,2.7431,2.7433,0,2.7009,2.7045,2.7148,2.7173,2.7193,2.724,2.728,2.7321,2.7349,2.7352,2.738,2.7366,2.7426,2.7376,2.7457,2.741,2.7434,2.7442,2.7446,2.7451,2.7395,2.7482,2.7631,2.7646,2.7455,2.7454,2.7452,0,2.7106,2.718,2.7251,2.7268,2.73,2.7333,2.7347,2.7373,2.74,2.7435,2.7453,2.7495,2.7518,2.755,2.7548,2.7512,2.763,2.758,2.7633,2.7633,2.7659,2.7657,2.7813,2.7675,2.7675,2.7674,2.7674,0,2.7231,2.7295,2.7294,2.7337,2.7407,2.7399,2.7468,2.7479,2.7502,2.7546,2.7525,2.7567,2.7562,2.7604,2.7603,2.7669,2.768,2.7683,2.7681,2.7684,2.7684,2.77,2.7692,2.7678,2.7678,2.7677,2.7676,0,2.7351,2.7354,2.7428,2.7451,2.7458,2.7508,2.7527,2.7568,2.7572,2.7629,2.7641,2.7649,2.7697,2.7697,2.7753,2.7752,2.7832,2.7824,2.7823,2.7821,2.7873,2.7867,2.8044,2.8066,2.7914,2.7916,2.7917,0,2.7431,2.7479,2.7507,2.7534,2.7551,2.7596,2.7623,2.7617,2.7646,2.7681,2.7717,2.7763,2.7799,2.7876,2.7886,2.7928,2.7919,2.7978,2.7926,2.7926,2.7919,2.7916,2.792,2.7989,2.799,2.7992,2.7993,0,2.7573,2.7571,2.7611,2.7651,2.7684,2.7715,2.7744,2.7768,2.7764,2.7798,2.7846,2.7874,2.7929,2.7975,2.8014,2.8029,2.801,2.8009,2.8023,2.8026,2.8024,2.8025,2.785,2.8005,2.8004,2.8003,2.8002,2.8002,2.7675,2.7715,2.774,2.7785,2.7805,2.7832,2.787,2.7879,2.7919,2.7963,2.7957,2.8011,2.8036,2.8087,2.8104,2.8145,2.8125,2.8146,2.8151,2.8156,2.8161,2.8017,2.8153,2.8152,2.8152,2.8152,2.8152,0,2.7814,2.7828,2.7869,2.7909,2.7944,2.7923,2.7953,2.7983,2.803,2.8055,2.8091,2.8145,2.8188,2.8201,2.8242,2.8272,2.8265,2.8283,2.8281,2.8284,2.8178,2.8161,2.8289,2.8289,2.8289,2.8289,2.8289,2.8289,2.789,2.7957,2.7958,2.8034,2.8047,2.8099,2.8118,2.8142,2.8162,2.8223,2.8259,2.8266,2.8286,2.8328,2.8366,2.8368,2.8384,2.8406,2.8405,2.8306,2.8292,2.8279,2.8263,2.841,2.841,2.8508,2.8509,2.851]}]]